{"data":{"norad_id":62753,"epoch":"2026-09-21T01:31:54.016032Z","epoch_age_seconds":122594,"freshness":"FRESH","line1":"1 62753U 25014U   26264.06381963  .00013834  00000+0  51128-3 0  9999","line2":"2 62753  42.9997 131.3331 0001443 269.5216  90.5470 15.27581898 93138","mean_motion":15.27581898,"eccentricity":0.0001443,"inclination_deg":42.9997,"raan_deg":131.3331,"arg_perigee_deg":269.5216,"mean_anomaly_deg":90.547,"bstar":0.00051128,"rev_number":9313,"period_min":94.266631588482,"perigee_km":482.05334441718,"apogee_km":484.0334810843,"semimajor_km":6861.1804127507,"source":"CELESTRAK","updated_at":"2026-09-22T09:00:49.659621Z"}}